Time,TemperatureF,DewpointF,PressureIn,WindDirection,WindDirectionDegrees,WindSpeedMPH,WindSpeedGustMPH,Humidity,HourlyPrecipIn,Conditions,Clouds,dailyrainin,SoftwareType,DateUTC
2013-03-16 00:00:00,28.0,9.0,-100.00,WNW,295,11.0,19.0,44,-99.99,,,-99.99,,2013-03-16 06:00:00,
2013-03-16 00:42:00,28.0,9.0,-100.00,WNW,295,11.0,19.0,44,-99.99,,,-99.99,,2013-03-16 06:42:00,
2013-03-16 00:52:00,28.0,9.0,-100.00,WNW,295,11.0,19.0,44,-99.99,,,-99.99,,2013-03-16 06:52:00,
2013-03-16 01:00:00,28.0,11.0,-100.00,West,275,8.0,22.0,49,-99.99,,,-99.99,,2013-03-16 07:00:00,
2013-03-16 01:42:00,28.0,11.0,-100.00,West,275,8.0,22.0,49,-99.99,,,-99.99,,2013-03-16 07:42:00,
2013-03-16 01:52:00,28.0,11.0,-100.00,West,275,8.0,22.0,49,-99.99,,,-99.99,,2013-03-16 07:52:00,
2013-03-16 02:00:00,28.0,8.0,-100.00,West,260,6.0,15.0,42,-99.99,,,-99.99,,2013-03-16 08:00:00,
2013-03-16 02:42:00,28.0,8.0,-100.00,West,260,6.0,15.0,42,-99.99,,,-99.99,,2013-03-16 08:42:00,
2013-03-16 02:52:00,28.0,8.0,-100.00,West,260,6.0,15.0,42,-99.99,,,-99.99,,2013-03-16 08:52:00,
2013-03-16 03:00:00,28.0,9.0,-100.00,West,269,6.0,19.0,45,-99.99,,,-99.99,,2013-03-16 09:00:00,
2013-03-16 03:42:00,28.0,9.0,-100.00,West,269,6.0,19.0,45,-99.99,,,-99.99,,2013-03-16 09:42:00,
2013-03-16 03:53:00,28.0,9.0,-100.00,West,269,6.0,19.0,45,-99.99,,,-99.99,,2013-03-16 09:53:00,
2013-03-16 04:00:00,27.0,11.0,-100.00,West,269,8.0,19.0,50,-99.99,,,-99.99,,2013-03-16 10:00:00,
2013-03-16 04:42:00,27.0,11.0,-100.00,West,269,8.0,19.0,50,-99.99,,,-99.99,,2013-03-16 10:42:00,
2013-03-16 04:53:00,27.0,11.0,-100.00,West,269,8.0,19.0,50,-99.99,,,-99.99,,2013-03-16 10:53:00,
2013-03-16 05:00:00,27.0,12.0,-100.00,West,264,9.0,23.0,53,-99.99,,,-99.99,,2013-03-16 11:00:00,
2013-03-16 05:43:00,27.0,12.0,-100.00,West,264,9.0,23.0,53,-99.99,,,-99.99,,2013-03-16 11:43:00,
2013-03-16 05:52:00,27.0,12.0,-100.00,West,264,9.0,23.0,53,-99.99,,,-99.99,,2013-03-16 11:52:00,
2013-03-16 06:00:00,26.0,12.0,-100.00,West,260,5.0,11.0,55,-99.99,,,-99.99,,2013-03-16 12:00:00,
2013-03-16 06:43:00,26.0,12.0,-100.00,West,260,5.0,11.0,55,-99.99,,,-99.99,,2013-03-16 12:43:00,
2013-03-16 06:52:00,26.0,12.0,-100.00,West,260,5.0,11.0,55,-99.99,,,-99.99,,2013-03-16 12:52:00,
2013-03-16 07:00:00,25.0,13.0,-100.00,WSW,254,7.0,12.0,57,-99.99,,,-99.99,,2013-03-16 13:00:00,
2013-03-16 07:42:00,25.0,13.0,-100.00,WSW,254,7.0,12.0,57,-99.99,,,-99.99,,2013-03-16 13:42:00,
2013-03-16 07:53:00,25.0,13.0,-100.00,WSW,254,7.0,12.0,57,-99.99,,,-99.99,,2013-03-16 13:53:00,
2013-03-16 08:00:00,25.0,14.0,-100.00,WSW,244,9.0,16.0,61,-99.99,,,-99.99,,2013-03-16 14:00:00,
2013-03-16 08:42:00,25.0,14.0,-100.00,WSW,244,9.0,16.0,61,-99.99,,,-99.99,,2013-03-16 14:42:00,
2013-03-16 08:52:00,25.0,14.0,-100.00,WSW,244,9.0,16.0,61,-99.99,,,-99.99,,2013-03-16 14:52:00,
2013-03-16 09:00:00,24.0,15.0,-100.00,WNW,289,12.0,19.0,67,-99.99,,,-99.99,,2013-03-16 15:00:00,
2013-03-16 09:43:00,24.0,15.0,-100.00,WNW,289,12.0,19.0,67,-99.99,,,-99.99,,2013-03-16 15:43:00,
2013-03-16 09:53:00,24.0,15.0,-100.00,WNW,289,12.0,19.0,67,-99.99,,,-99.99,,2013-03-16 15:53:00,
2013-03-16 10:00:00,24.0,15.0,-100.00,West,271,9.0,16.0,68,-99.99,,,-99.99,,2013-03-16 16:00:00,
2013-03-16 10:43:00,24.0,15.0,-100.00,West,271,9.0,16.0,68,-99.99,,,-99.99,,2013-03-16 16:43:00,
2013-03-16 10:53:00,24.0,15.0,-100.00,West,271,9.0,16.0,68,-99.99,,,-99.99,,2013-03-16 16:53:00,
2013-03-16 11:00:00,26.0,17.0,-100.00,SW,232,7.0,17.0,66,-99.99,,,-99.99,,2013-03-16 17:00:00,
2013-03-16 11:43:00,26.0,17.0,-100.00,SW,232,7.0,17.0,66,-99.99,,,-99.99,,2013-03-16 17:43:00,
2013-03-16 11:53:00,26.0,17.0,-100.00,SW,232,7.0,17.0,66,-99.99,,,-99.99,,2013-03-16 17:53:00,
2013-03-16 12:00:00,23.0,19.0,-100.00,NW,314,13.0,22.0,83,-99.99,,,-99.99,,2013-03-16 18:00:00,
2013-03-16 12:43:00,23.0,19.0,-100.00,NW,314,13.0,22.0,83,-99.99,,,-99.99,,2013-03-16 18:43:00,
2013-03-16 12:53:00,23.0,19.0,-100.00,NW,314,13.0,22.0,83,-99.99,,,-99.99,,2013-03-16 18:53:00,
2013-03-16 13:00:00,24.0,21.0,-100.00,WNW,284,9.0,23.0,88,-99.99,,,-99.99,,2013-03-16 19:00:00,
2013-03-16 13:42:00,24.0,21.0,-100.00,WNW,284,9.0,23.0,88,-99.99,,,-99.99,,2013-03-16 19:42:00,
2013-03-16 13:52:00,24.0,21.0,-100.00,WNW,284,9.0,23.0,88,-99.99,,,-99.99,,2013-03-16 19:52:00,
2013-03-16 14:00:00,23.0,21.0,-100.00,West,279,9.0,25.0,88,-99.99,,,-99.99,,2013-03-16 20:00:00,
2013-03-16 14:42:00,23.0,21.0,-100.00,West,279,9.0,25.0,88,-99.99,,,-99.99,,2013-03-16 20:42:00,
2013-03-16 14:52:00,23.0,21.0,-100.00,West,279,9.0,25.0,88,-99.99,,,-99.99,,2013-03-16 20:52:00,
2013-03-16 15:00:00,22.0,21.0,-100.00,NW,314,17.0,27.0,95,-99.99,,,-99.99,,2013-03-16 21:00:00,
2013-03-16 15:43:00,22.0,21.0,-100.00,NW,314,17.0,27.0,95,-99.99,,,-99.99,,2013-03-16 21:43:00,
2013-03-16 15:52:00,22.0,21.0,-100.00,NW,314,17.0,27.0,95,-99.99,,,-99.99,,2013-03-16 21:52:00,
2013-03-16 16:00:00,21.0,19.0,-100.00,NW,311,23.0,39.0,95,-99.99,,,-99.99,,2013-03-16 22:00:00,
2013-03-16 16:42:00,21.0,19.0,-100.00,NW,311,23.0,39.0,95,-99.99,,,-99.99,,2013-03-16 22:42:00,
2013-03-16 16:52:00,21.0,19.0,-100.00,NW,311,23.0,39.0,95,-99.99,,,-99.99,,2013-03-16 22:52:00,
2013-03-16 17:00:00,20.0,17.0,-100.00,NW,307,18.0,35.0,88,-99.99,,,-99.99,,2013-03-16 23:00:00,
2013-03-16 17:42:00,20.0,17.0,-100.00,NW,307,18.0,35.0,88,-99.99,,,-99.99,,2013-03-16 23:42:00,
2013-03-16 17:52:00,20.0,17.0,-100.00,NW,307,18.0,35.0,88,-99.99,,,-99.99,,2013-03-16 23:52:00,
2013-03-16 18:00:00,20.0,16.0,-100.00,WNW,303,17.0,29.0,81,-99.99,,,-99.99,,2013-03-17 00:00:00,
2013-03-16 18:42:00,20.0,16.0,-100.00,WNW,303,17.0,29.0,81,-99.99,,,-99.99,,2013-03-17 00:42:00,
2013-03-16 18:52:00,20.0,16.0,-100.00,WNW,303,17.0,29.0,81,-99.99,,,-99.99,,2013-03-17 00:52:00,
2013-03-16 19:00:00,20.0,16.0,-100.00,NW,315,19.0,36.0,84,-99.99,,,-99.99,,2013-03-17 01:00:00,
2013-03-16 19:43:00,20.0,16.0,-100.00,NW,315,19.0,36.0,84,-99.99,,,-99.99,,2013-03-17 01:43:00,
2013-03-16 19:53:00,20.0,16.0,-100.00,NW,315,19.0,36.0,84,-99.99,,,-99.99,,2013-03-17 01:53:00,
2013-03-16 20:00:00,19.0,17.0,-100.00,NW,312,17.0,30.0,94,-99.99,,,-99.99,,2013-03-17 02:00:00,
2013-03-16 20:43:00,19.0,17.0,-100.00,NW,312,17.0,30.0,94,-99.99,,,-99.99,,2013-03-17 02:43:00,
2013-03-16 20:52:00,19.0,17.0,-100.00,NW,312,17.0,30.0,94,-99.99,,,-99.99,,2013-03-17 02:52:00,
2013-03-16 21:00:00,19.0,15.0,-100.00,NW,309,17.0,31.0,82,-99.99,,,-99.99,,2013-03-17 03:00:00,
2013-03-16 21:43:00,19.0,15.0,-100.00,NW,309,17.0,31.0,82,-99.99,,,-99.99,,2013-03-17 03:43:00,
2013-03-16 21:53:00,19.0,15.0,-100.00,NW,309,17.0,31.0,82,-99.99,,,-99.99,,2013-03-17 03:53:00,
2013-03-16 22:00:00,19.0,14.0,-100.00,NW,307,18.0,29.0,81,-99.99,,,-99.99,,2013-03-17 04:00:00,
2013-03-16 22:43:00,19.0,14.0,-100.00,NW,307,18.0,29.0,81,-99.99,,,-99.99,,2013-03-17 04:43:00,
2013-03-16 22:53:00,19.0,14.0,-100.00,NW,307,18.0,29.0,81,-99.99,,,-99.99,,2013-03-17 04:53:00,
2013-03-16 23:00:00,20.0,13.0,-100.00,NW,304,22.0,39.0,73,-99.99,,,-99.99,,2013-03-17 05:00:00,
2013-03-16 23:42:00,20.0,13.0,-100.00,NW,304,22.0,39.0,73,-99.99,,,-99.99,,2013-03-17 05:42:00,
2013-03-16 23:52:00,20.0,13.0,-100.00,NW,304,22.0,39.0,73,-99.99,,,-99.99,,2013-03-17 05:52:00,